Left ArrowRight Arrow

39.14045, -121.61691

Hourly Observations for June 19, 2024

Temp ( °F °C ) Dew Point ( °F °C ) Humidity (%) Winds ( mph kmh ) Pressure ( in mb ) Visibility ( mi km ) Precip ( " mm )
12:53 am 00:53 Clear 63 17.2 44 6.7 50 50 E 5 7 29.78 1009 10 16 0.00 0.00
1:53 am 01:53 Clear 60 15.6 41 5 49 49 SE 3 6 29.78 1009 10 16 0.00 0.00
2:53 am 02:53 Clear 60 15.6 41 5 49 49 SSE 3 6 29.78 1009 10 16 0.00 0.00
3:53 am 03:53 Clear 62 16.7 44 6.7 52 52 Calm 29.78 1009 10 16 0.00 0.00
4:53 am 04:53 Clear 56 13.3 44 6.7 64 64 S 5 7 29.80 1009 10 16 0.00 0.00
5:53 am 05:53 Sunny 57 13.9 42 5.6 57 57 SE 3 6 29.81 1009 10 16 0.00 0.00
6:53 am 06:53 Sunny 61 16.1 45 7.2 56 56 E 3 6 29.82 1010 10 16 0.00 0.00
7:53 am 07:53 Sunny 66 18.9 43 6.1 43 43 SE 6 9 29.84 1010 10 16 0.00 0.00
8:53 am 08:53 Sunny 73 22.8 41 5 31 31 SE 3 6 29.85 1011 10 16 0.00 0.00
9:53 am 09:53 Sunny 77 25 40 4.4 26 26 N 5 7 29.85 1011 10 16 0.00 0.00
10:53 am 10:53 Sunny 81 27.2 40 4.4 23 23 Calm 29.85 1011 10 16 0.00 0.00
11:53 am 11:53 Sunny 83 28.3 41 5 23 23 VRB 3 6 29.85 1011 10 16 0.00 0.00
12:53 pm 12:53 Sunny 85 29.4 42 5.6 22 22 VRB 5 7 29.84 1011 10 16 0.00 0.00
1:53 pm 13:53 Sunny 88 31.1 45 7.2 22 22 undefined N/A 29.83 1010 10 16 0.00 0.00
2:53 pm 14:53 Sunny 89 31.7 48 8.9 24 24 VRB 6 9 29.81 1009 10 16 0.00 0.00
3:53 pm 15:53 Sunny 90 32.2 42 5.6 19 19 SSW 8 13 29.80 1009 10 16 0.00 0.00
4:53 pm 16:53 Sunny 90 32.2 37 2.8 16 16 VRB 6 9 29.78 1009 10 16 0.00 0.00
5:53 pm 17:53 Sunny 90 32.2 34 1.1 14 14 SSE 3 6 29.77 1008 10 16 0.00 0.00
6:53 pm 18:53 Sunny 88 31.1 36 2.2 16 16 S 5 7 29.76 1008 10 16 0.00 0.00
7:53 pm 19:53 Sunny 84 28.9 32 0 15 15 SSW 3 6 29.77 1008 10 16 0.00 0.00
8:53 pm 20:53 Clear 76 24.4 46 7.8 35 35 S 5 7 29.78 1009 10 16 0.00 0.00
9:53 pm 21:53 Clear 73 22.8 51 10.6 46 46 S 6 9 29.80 1009 10 16 0.00 0.00
10:53 pm 22:53 Clear 69 20.6 52 11.1 54 54 SE 9 15 29.81 1010 10 16 0.00 0.00
11:53 pm 23:53 Clear 67 19.4 49 9.4 52 52 SSE 9 15 29.82 1010 10 16 0.00 0.00

Powered by Vaisala Xweather